Preston, MN

9:45 AM CDT on April 22, 2018 (GMT -0500)
Preston

Weather History for KFKA - February, 2014

Change the Weather History Date:

Monday, February 24, 2014

  Actual Average (KRST) Record (KRST)
Temperature  
Mean Temperature 6 °F -  
Max Temperature 12 °F 29 °F 60 °F (1931)
Min Temperature 0 °F 13 °F -24 °F (1913)
Degree Days  
Heating Degree Days 59    
Moisture  
Dew Point 0 °F    
Average Humidity 73    
Maximum Humidity 82    
Minimum Humidity 60    
Precipitation  
Precipitation 0.00 in - - ()
Sea Level Pressure  
Sea Level Pressure 30.25 in    
Wind  
Wind Speed 12 mph (WNW)    
Max Wind Speed 16 mph    
Max Gust Speed 20 mph    
Visibility 10 miles    
Events      
Averages and records for this station are not official NWS values.
T = Trace of Precipitation, MM = Missing Value Source: NWS Daily Summary

Daily Weather History Graph

Daily Weather History Graph

Search for Another Location

Airport or City:

Astronomy

Feb. 24, 2014 Rise Set
Actual Time 6:53 AM CST 5:50 PM CST
Civil Twilight 6:24 AM CST 6:19 PM CST
Nautical Twilight 5:51 AM CST 6:53 PM CST
Astronomical Twilight 5:18 AM CST 7:26 PM CST
Moon 2:58 AM CST (2/24) 12:46 PM CST (2/24)
Length of Visible Light 11h 55m
Length of Day
10h 57m
Waning Crescent, 28% of the Moon is Illuminated
Feb 24
Waning Crescent
Mar 1
New
Mar 8
First Quarter
Mar 16
Full
Mar 23
Last Quarter

Hourly Weather History & Observations

Time (CST) Temp. Windchill Dew Point Humidity Pressure Visibility Wind Dir Wind Speed Gust Speed Precip Events Conditions
12:11 AM 8.4 °F -9.2 °F 2.7 °F 77% 30.23 in 10.0 mi WNW 16.1 mph - N/A   Clear
12:30 AM 7.9 °F -8.6 °F 2.1 °F 77% 30.23 in 10.0 mi WNW 13.8 mph - N/A   Clear
12:51 AM 7.3 °F -10.0 °F 1.6 °F 77% 30.23 in 10.0 mi WNW 15.0 mph - N/A   Clear
1:11 AM 6.6 °F -10.2 °F 1.0 °F 78% 30.23 in 10.0 mi WNW 13.8 mph - N/A   Clear
1:31 AM 5.7 °F -9.9 °F 0.5 °F 79% 30.23 in 10.0 mi WNW 11.5 mph - N/A   Clear
1:51 AM 5.7 °F -9.1 °F 0.3 °F 78% 30.23 in 10.0 mi NW 10.4 mph - N/A   Clear
2:11 AM 5.0 °F -11.6 °F -0.2 °F 79% 30.24 in 10.0 mi WNW 12.7 mph - N/A   Clear
2:31 AM 4.5 °F -11.5 °F -0.9 °F 78% 30.23 in 10.0 mi WNW 11.5 mph - N/A   Clear
2:51 AM 4.1 °F -12.7 °F -1.1 °F 79% 30.23 in 10.0 mi WNW 12.7 mph - N/A   Clear
3:10 AM 3.2 °F -11.3 °F -2.0 °F 79% 30.24 in 10.0 mi WNW 9.2 mph - N/A   Clear
3:31 AM 2.8 °F -10.7 °F -2.2 °F 79% 30.24 in 10.0 mi WNW 8.1 mph - N/A   Clear
3:51 AM 3.0 °F -14.1 °F -1.7 °F 81% 30.24 in 10.0 mi NW 12.7 mph - N/A   Clear
4:11 AM 2.7 °F -12.9 °F -2.4 °F 79% 30.25 in 10.0 mi WNW 10.4 mph - N/A   Clear
4:31 AM 2.1 °F -14.4 °F -2.7 °F 80% 30.24 in 10.0 mi WNW 11.5 mph - N/A   Clear
4:51 AM 1.6 °F -14.2 °F -3.3 °F 80% 30.24 in 10.0 mi NW 10.4 mph - N/A   Clear
5:11 AM 1.8 °F -14.0 °F -3.3 °F 79% 30.25 in 10.0 mi WNW 10.4 mph - N/A   Clear
5:31 AM 1.8 °F -15.7 °F -3.5 °F 79% 30.24 in 10.0 mi NW 12.7 mph 16.1 mph N/A   Clear
5:51 AM 1.4 °F -16.9 °F -4.0 °F 78% 30.25 in 10.0 mi WNW 13.8 mph - N/A   Clear
6:10 AM 0.9 °F -16.8 °F -4.4 °F 79% 30.25 in 10.0 mi WNW 12.7 mph - N/A   Clear
6:31 AM 0.5 °F -17.3 °F -4.7 °F 79% 30.25 in 10.0 mi NW 12.7 mph 19.6 mph N/A   Clear
6:51 AM -0.4 °F -14.7 °F -5.6 °F 79% 30.25 in 10.0 mi NW 8.1 mph - N/A   Clear
7:11 AM -0.4 °F -15.7 °F -5.8 °F 78% 30.25 in 10.0 mi WNW 9.2 mph - N/A   Clear
7:31 AM -0.8 °F -16.2 °F -6.2 °F 78% 30.26 in 10.0 mi WNW 9.2 mph - N/A   Clear
7:51 AM -0.4 °F -18.4 °F -6.0 °F 77% 30.27 in 10.0 mi WNW 12.7 mph - N/A   Clear
8:10 AM -0.2 °F -18.2 °F -5.8 °F 77% 30.28 in 10.0 mi WNW 12.7 mph - N/A   Clear
8:31 AM 0.9 °F -18.3 °F -5.1 °F 76% 30.28 in 10.0 mi WNW 15.0 mph - N/A   Clear
8:50 AM 1.8 °F -15.7 °F -4.9 °F 74% 30.28 in 10.0 mi WNW 12.7 mph - N/A   Clear
9:11 AM 3.0 °F -15.5 °F -4.0 °F 73% 30.28 in 10.0 mi NW 15.0 mph - N/A   Clear
9:31 AM 3.4 °F -15.7 °F -4.0 °F 71% 30.28 in 10.0 mi NW 16.1 mph - N/A   Clear
9:50 AM 3.7 °F -14.6 °F -3.6 °F 71% 30.28 in 10.0 mi NW 15.0 mph - N/A   Clear
10:11 AM 4.5 °F -13.0 °F -3.1 °F 71% 30.28 in 10.0 mi NW 13.8 mph - N/A   Clear
10:30 AM 5.2 °F -12.7 °F -2.7 °F 70% 30.28 in 10.0 mi WNW 15.0 mph - N/A   Clear
10:51 AM 6.6 °F -10.2 °F -2.2 °F 67% 30.28 in 10.0 mi WNW 13.8 mph - N/A   Clear
11:10 AM 7.3 °F -8.6 °F -1.8 °F 66% 30.29 in 10.0 mi WNW 12.7 mph - N/A   Clear
11:31 AM 8.6 °F -5.5 °F -0.4 °F 67% 30.29 in 10.0 mi West 10.4 mph - N/A   Clear
11:51 AM 8.6 °F -5.5 °F 0.1 °F 68% 30.28 in 10.0 mi West 10.4 mph - N/A   Clear
12:11 PM 9.5 °F -3.5 °F 0.5 °F 67% 30.29 in 10.0 mi West 9.2 mph - N/A   Clear
12:31 PM 10.2 °F -4.3 °F 0.5 °F 65% 30.29 in 10.0 mi West 11.5 mph - N/A   Clear
12:51 PM 11.1 °F -3.2 °F 0.7 °F 63% 30.27 in 10.0 mi West 11.5 mph - N/A   Clear
1:10 PM 11.8 °F -0.7 °F 1.4 °F 63% 30.27 in 10.0 mi West 9.2 mph - N/A   Clear
1:31 PM 12.7 °F -0.4 °F 2.8 °F 65% 30.27 in 10.0 mi West 10.4 mph - N/A   Clear
1:50 PM 12.6 °F -1.4 °F 2.1 °F 63% 30.27 in 10.0 mi West 11.5 mph - N/A   Clear
2:11 PM 12.2 °F -2.5 °F 1.2 °F 61% 30.26 in 10.0 mi NW 12.7 mph - N/A   Clear
2:31 PM 12.6 °F -2.0 °F 1.0 °F 60% 30.25 in 10.0 mi NW 12.7 mph - N/A   Clear
2:51 PM 11.8 °F -3.6 °F 1.2 °F 62% 30.25 in 10.0 mi NW 13.8 mph - N/A   Clear
3:11 PM 11.3 °F -2.2 °F 1.4 °F 64% 30.24 in 10.0 mi NW 10.4 mph - N/A   Clear
3:31 PM 10.9 °F -4.1 °F 1.8 °F 67% 30.24 in 10.0 mi WNW 12.7 mph - N/A   Clear
3:50 PM 10.8 °F -2.8 °F 1.9 °F 68% 30.24 in 10.0 mi WNW 10.4 mph - N/A   Clear
4:11 PM 10.8 °F -2.8 °F 1.6 °F 67% 30.24 in 10.0 mi WNW 10.4 mph - N/A   Clear
4:31 PM 10.0 °F -1.9 °F 2.3 °F 71% 30.23 in 10.0 mi WNW 8.1 mph - N/A   Clear
4:51 PM 9.9 °F -3.1 °F 1.4 °F 69% 30.24 in 10.0 mi WNW 9.2 mph - N/A   Clear
5:10 PM 9.5 °F -1.5 °F 2.3 °F 73% 30.23 in 10.0 mi NW 6.9 mph - N/A   Clear
5:31 PM 9.3 °F -1.7 °F 1.9 °F 72% 30.23 in 10.0 mi West 6.9 mph - N/A   Clear
5:51 PM 9.0 °F -4.2 °F 2.1 °F 74% 30.23 in 10.0 mi West 9.2 mph - N/A   Clear
6:10 PM 9.0 °F -5.1 °F 2.3 °F 74% 30.24 in 10.0 mi West 10.4 mph - N/A   Clear
6:31 PM 9.1 °F -4.9 °F 2.3 °F 74% 30.25 in 10.0 mi West 10.4 mph - N/A   Clear
6:51 PM 9.3 °F -5.4 °F 2.3 °F 73% 30.26 in 10.0 mi West 11.5 mph - N/A   Clear
7:11 PM 9.1 °F -4.9 °F 2.1 °F 73% 30.25 in 10.0 mi NW 10.4 mph - N/A   Clear
7:31 PM 9.1 °F -5.6 °F 1.6 °F 71% 30.25 in 10.0 mi WNW 11.5 mph - N/A   Clear
7:51 PM 9.1 °F -5.6 °F 1.8 °F 72% 30.24 in 10.0 mi NW 11.5 mph - N/A   Clear
8:11 PM 9.0 °F -6.6 °F 1.4 °F 71% 30.24 in 10.0 mi NW 12.7 mph - N/A   Clear
8:31 PM 8.6 °F -6.3 °F 1.4 °F 73% 30.25 in 10.0 mi NW 11.5 mph - N/A   Clear
8:51 PM 8.6 °F -4.7 °F 1.8 °F 74% 30.26 in 10.0 mi NW 9.2 mph - N/A   Clear
9:11 PM 8.6 °F -7.0 °F 2.1 °F 75% 30.26 in 10.0 mi WNW 12.7 mph - N/A   Clear
9:31 PM 8.6 °F -6.3 °F 2.3 °F 76% 30.26 in 10.0 mi NW 11.5 mph - N/A   Clear
9:51 PM 8.6 °F -5.5 °F 1.8 °F 74% 30.26 in 10.0 mi WNW 10.4 mph - N/A   Clear
10:11 PM 8.4 °F -7.3 °F 1.9 °F 75% 30.26 in 10.0 mi NW 12.7 mph - N/A   Clear
10:31 PM 8.2 °F -8.2 °F 1.4 °F 74% 30.26 in 10.0 mi NW 13.8 mph - N/A   Clear
10:50 PM 8.2 °F -6.8 °F 1.6 °F 74% 30.26 in 10.0 mi NW 11.5 mph - N/A   Clear
11:11 PM 7.7 °F -6.6 °F 2.1 °F 78% 30.26 in 7.0 mi NW 10.4 mph - N/A   Clear
11:30 PM 7.3 °F -7.1 °F 2.5 °F 81% 30.26 in 4.0 mi NW 10.4 mph - N/A   Haze
11:51 PM 6.8 °F -7.8 °F 2.3 °F 82% 30.26 in 5.0 mi NW 10.4 mph - N/A   Haze